Regional Weather Roundup
Issued by NWS Upton, NY

Current Version | Previous Version | Graphics & Text | Print | Product List | Glossary Off
Versions: 1 2 3 4 5 6 7 8 9 10 11 12 13 14 15 16 17 18 19 20 21 22 23 24 25 26 27 28 29 30 31 32 33 34 35 36 37 38 39 40 41 42 43 44 45 46 47 48 49 50

000
ASUS41 KOKX 052105
RWROKX

REGIONAL WEATHER ROUNDUP
NATIONAL WEATHER SERVICE NEW YORK NY
400 PM EST THU MAR 05 2015

NOTE: "FAIR" INDICATES FEW OR NO CLOUDS BELOW 12,000 FEET WITH NO
SIGNIFICANT WEATHER AND/OR OBSTRUCTIONS TO VISIBILITY.

NYZ071-072-176-178-NJZ106-104-052200-
NEW YORK CITY METRO AREA


CITY           SKY/WX    TMP DP  RH WIND       PRES   REMARKS
CENTRAL PARK   SNOW      20  16  84 W7        30.21R VSB 1/2 WCI  11
LAGUARDIA APRT SNOW      23  18  80 NW8       30.20R VSB 1/2 WCI  14
KENNEDY INTL   LGT SNOW  23  17  78 NW12      30.19S WCI  12
NEWARK/LIBERTY LGT SNOW  22  18  85 W9G22     30.20S VSB 3/4 WCI  12
BRNX BOT. GARD   N/A    N/A N/A N/A W5        30.18F
TETERBORO      SNOW      21  16  79 NW8       30.20R VSB 1/2 WCI  12
$$

NYZ177-179-078>081-052200-
LONG ISLAND NEW YORK

CITY           SKY/WX    TMP DP  RH WIND       PRES   REMARKS
FARMINGDALE    LGT SNOW  23  18  81 N6        30.18S VSB 1   WCI  16
ISLIP          LGT SNOW  22  15  75 NW9       30.15R WCI  12
SHIRLEY        LGT SNOW  21  14  74 NW9       30.18S WCI  11
WESTHAMPTON    LGT SNOW  21  16  81 NW10      30.17R VSB 3/4 WCI  10
MONTAUK POINT    N/A     25  21  85 NW10      30.16R WCI  15
$$

NYZ052-065-067-052200-
HUDSON VALLEY

CITY           SKY/WX    TMP DP  RH WIND       PRES   REMARKS
WHITE PLAINS   SNOW      20  14  77 N9        30.15R VSB 1/2 WCI   9
NEWBURGH       CLOUDY    23   5  46 N7        30.15R WCI  15
MONTGOMERY     CLOUDY    23   2  40 NW8       30.15R WCI  14
POUGHKEEPSIE   CLOUDY    23   4  44 N10       30.17R WCI  12
ALBANY         CLOUDY    20   4  50 NW15      30.18F WCI   6
$$

NJZ001-105-106-008-010-013-015-019>022-104-052200-
NEW JERSEY

CITY           SKY/WX    TMP DP  RH WIND       PRES   REMARKS
NEWARK/LIBERTY LGT SNOW  22  18  85 W9G22     30.20S VSB 3/4 WCI  12
TETERBORO      SNOW      21  16  79 NW8       30.20R VSB 1/2 WCI  12
CALDWELL       SNOW      20  15  81 NW6       30.20R VSB 1/2 WCI  12
MORRISTOWN     LGT SNOW  19  18  93 N6        30.21R VSB 1   WCI  11
SOMERVILLE     SNOW      20  15  81 NW8       30.19S VSB 1/2 WCI  10
SUSSEX         CLOUDY    22   0  38 NW8       30.18R WCI  12
ANDOVER          N/A     18  11  74 SW5       30.17R WCI  11
TRENTON        LGT SNOW  20  16  84 N8        30.19S VSB 3/4 WCI  10
MILLVILLE      HVY SNOW  24 N/A N/A N16G24    30.18R VSB 1/4 WCI  11
ATLANTIC CITY  HVY SNOW  24  22  91 N16       30.17F VSB 1/4 WCI  11
WRIGHTSTOWN    LGT SNOW  21  18  86 N13       30.17R FOG     WCI   9
TOMS RIVER     CLOUDY    23  19  86 NW9       30.19R VSB 3/4 WCI  13
BELMAR         CLOUDY    21  14  73 N10       30.18R WCI  10
$$

PAZ047>061-062-071-052200-
EASTERN PENNSYLVANIA

CITY           SKY/WX    TMP DP  RH WIND       PRES   REMARKS
PHILADELPHIA   LGT SNOW  22  19  89 NW13      30.23R VSB 3/4 WCI  10
ALLENTOWN      CLOUDY    19  11  70 NW6       30.22R WCI  11
SCRANTON       CLOUDY    18   3  52 N9        30.17R WCI   7
$$

CTZ002-004>006-009-010-012-RIZ004-006-007-MAZ004-011-015-052200-
SOUTHERN NEW ENGLAND
 IN CT

CITY           SKY/WX    TMP DP  RH WIND       PRES   REMARKS
BRADLEY INTL   CLOUDY    26   6  42 NW9       30.13R WCI  17
HARTFORD       CLOUDY    25   6  44 W6        30.15R WCI  18
DANBURY        CLOUDY    20   6  55 VRB3      30.15F
WTRBRY/OXFORD  CLOUDY    19   3  49 NW6       30.12S WCI  11
BRIDGEPORT     LGT SNOW  21  14  74 NW8       30.17R WCI  11
MERIDEN        LGT SNOW  22  14  71 W6        30.16R WCI  14
NEW HAVEN      LGT SNOW  22  13  68 NW7       30.16R WCI  13
CHESTER        LGT SNOW  23  16  74 NW7       30.13R WCI  15
GROTON         LGT SNOW  22  18  85 NW10      30.15R FOG     WCI  11
WILLIMANTIC    CLOUDY    25  13  60 NW7       30.13R WCI  17

 IN RI

CITY           SKY/WX    TMP DP  RH WIND       PRES   REMARKS
PROVIDENCE     LGT SNOW  24  20  84 CALM      30.13R VSB 3/4
BLOCK ISLAND   CLOUDY    25  19  80 N13       30.11R VSB 1   WCI  13
WESTERLY       SNOW      24  21  88 NW3       30.14R VSB 1/2

 IN MA

CITY           SKY/WX    TMP DP  RH WIND       PRES   REMARKS
BOSTON         CLOUDY    25   3  38 N13       30.12R WCI  14
WORCESTER      CLOUDY    22   1  40 N7        30.05S WCI  13
WESTFIELD      CLOUDY    24   1  36 NW12      30.13R WCI  13
PROVINCETOWN   CLOUDY    27  12  54 N14G20    30.11S WCI  15
NANTUCKET      LGT SNOW  26  23  88 N16       30.10R VSB 3/4 WCI  14
$$

ANZ330-335-338-340-345-350-353-355-052200-
COASTAL MARINE OBSERVATIONS


STATION/POSITION TIME  SKY/WX   TEMP    WIND        PRES    VSBY  WAVE
                                AIR SEA DIR/SP/G                  HT/PER
                 (UTC)          (F)     (DEG/KT/KT) (MB)    (MI)  (FT/S)
NY HARB ENTRANCE 2100            24 38  340/ 14/ 17 1021.7          3/ 4
4S FIRE IS       2100               32                N/A           3/ 9
20S FIRE ISLAND  2000               36              1021.6          4/ 4
23SW MTP         2100                                 N/A           4/ 4
HUDSON CANYON    NOT AVBL
EXECUTION ROCKS  NOT AVBL
WESTERN LI SOUND NOT AVBL
CENTRAL LI SOUND NOT AVBL
EASTERN LI SOUND NOT AVBL
ROBBINS REEF     2100            21     280/ 11/ 13 1021.3
$$


>>>>>>>>>>>>>>>>>>>>>>>>>>>> KEY <<<<<<<<<<<<<<<<<<<<<<<<<<<
>                                                          <
>     SKY/WX - SKY CONDITION/PRESENT WEATHER               <
>     TMP    - TEMPERATURE IN FAHRENHEIT                   <
>     DP     - DEWPOINT IN FAHRENHEIT                      <
>     RH     - RELATIVE HUMIDITY IN PERCENT                <
>     WIND   - DIRECTION AND SPEED IN MPH                  <
>     PRES   - MEAN SEA LEVEL PRESSURE IN INCHES OF HG     <
>     WCI    - WIND CHILL INDEX                            <
>     VSB    - VISIBILITY IN MILES                         <
>     HX     - HEAT INDEX                                  <
>     TC     - TEMPERATURE IN CELSIUS                      <
>     VRB    - VARIABLE WIND DIRECTION                     <
>                                                          <
>>>>>>>>>>>>>>>>>>>>>>>>>>>> KEY <<<<<<<<<<<<<<<<<<<<<<<<<<<




USA.gov is the U.S. government's official web portal to all federal, state and local government web resources and services.